Regional Weather Roundup
Issued by NWS

Home | Current Version | Previous Version | Graphics & Text | Print | Product List | Glossary On
Versions: 1 2 3 4 5 6 7 8 9 10 11 12 13 14 15 16 17 18 19 20 21 22 23 24 25 26 27 28 29 30 31 32 33 34 35 36 37 38 39 40 41 42 43 44 45 46 47 48 49 50
000
ASUS44 KMEG 201710
RWRTN
TENNESSEE HOURLY STATE WEATHER ROUNDUP
NATIONAL WEATHER SERVICE MEMPHIS TN
1200 PM CDT WED SEP 20 2017

TNZ002-004-019-021-049-052-054-088>092-201800-
WEST TENNESSEE

CITY           SKY/WX    TMP DP  RH WIND       PRES   REMARKS
MEMPHIS INTL   MOSUNNY   87  74  64 SW14G23   30.01S HX  95
NWS MEMPHIS      N/A     88 N/A N/A MISG        N/A
JACKSON        MOSUNNY   89  74  60 SW9       30.03S HX  98
DYERSBURG      PTSUNNY   86  73  65 SW9       30.01F HX  93
SOMERVILLE     MOSUNNY   86  73  66 S7        30.01F HX  93
COVINGTON      MOSUNNY   88  73  62 S8G14     30.00F HX  96
BOLIVAR        MOSUNNY   88  73  62 SW8       30.02S HX  96
PARIS          PTSUNNY   86  73  66 VRB7G14   30.01  HX  93
HUNTINGDON     PTSUNNY   86  73  66 W8        30.01F HX  93
LEXINGTON      SUNNY     86  73  66 CALM      30.03S HX  93
SELMER         SUNNY     86  73  66 CALM      30.03F HX  93
SAVANNAH       SUNNY     88  73  62 SW6       30.02F HX  96
$$

TNZ008-025-027-028-033-062-065-066-201800-
NORTH MIDDLE TENNESSEE

CITY           SKY/WX    TMP DP  RH WIND       PRES   REMARKS
NASHVILLE      MOSUNNY   86  71  60 VRB3      30.06F HX  91
PORTLAND       SUNNY     82  73  74 CALM      30.05F
CLARKSVILLE    SUNNY     86  72  62 S8        30.03F HX  92
SMYRNA         MOSUNNY   84  72  66 CALM      30.07S
COOKEVILLE     SUNNY     82  72  69 VRB3      30.08S
GALLATIN       SUNNY     82  72  69 VRB5      30.08S
CROSSVILLE     PTSUNNY   80  66  62 W5        30.13F
$$

TNZ061-075-076-078-094-096-097-201800-
SOUTH MIDDLE TENNESSEE

CITY           SKY/WX    TMP DP  RH WIND       PRES   REMARKS
FAYETTEVILLE   SUNNY     84  72  65 NW3       30.07F
TULLAHOMA      MOSUNNY   84  66  54 VRB5      30.09F
WINCHESTER     SUNNY     84  70  61 NE3         N/A
MCMINNVILLE    SUNNY     84  73  70 VRB3      30.08F HX  91
COLUMBIA       SUNNY     84  72  65 CALM      30.03F
SHELBYVILLE    SUNNY     84  72  65 CALM      30.07F
$$

TNZ017-018-042-046-047-201800-
NORTHEAST TENNESSEE

CITY           SKY/WX    TMP DP  RH WIND       PRES   REMARKS
TRI CITIES     MOSUNNY   82  65  56 NW7       30.10F
ELIZABETHTON   MOSUNNY   81  64  57 VRB3      30.10F
$$

TNZ012-013-036-069-073-074-201800-
CENTRAL EAST TENNESSEE

CITY           SKY/WX    TMP DP  RH WIND       PRES   REMARKS
KNOXVILLE      MOSUNNY   81  65  58 CALM      30.07F
OAK RIDGE      SUNNY     78  65  63 S3        30.09F
DOWNTOWN KNOXV SUNNY     81  66  61 CALM      30.07F
GATLINBURG     SUNNY     82  63  51 CALM      30.07F
MORRISTOWN     SUNNY     81  66  61 VRB7      30.09F
JACKSBORO      SUNNY     79  70  73 VRB3      30.12F
$$

TNZ083-085-099-201800-
SOUTHEAST TENNESSEE

CITY           SKY/WX    TMP DP  RH WIND       PRES   REMARKS
CHATTANOOGA    MOSUNNY   80  66  62 SW3       30.08F
DAYTON         SUNNY     79  72  78 CALM      30.07F
$$

SKY/WX REPORTED AS FAIR MEANS FEW OR NO CLOUDS BELOW
12 THOUSAND FEET.




USA.gov is the U.S. government's official web portal to all federal, state and local government web resources and services.